STARLINK-11481, 62230

Orbit data source: Space-Track

STARLINK-11481, 62230 is a payload satellite owned by SpaceX/Seattle (US) in LEO that was launched on Thu, 05 Dec 2024 UTC via an FALCON 9 launch vehicle from the Air Force Western Test Range (AFWTR). Payloads include a variety of satellites, spacecraft, and rockets equipped with specific instruments for various scientific and technological missions. These include communications satellites like Starlink; space stations such as the ISS; scientific satellites like the Hubble; Earth observation satellites from companies like Planet Labs, Umbra, and HawkEye 360; GPS; miniature CubeSats for education and research; and military/defense satellites.

Loading next visibility...
STARLINK-11481 details
Identifier
62230, 2024-231N
Orbit
LEO
Last TLE update18 hours ago
Origin
Flag of USSpaceX/Seattle (US)
ManufacturerSpaceX/Seattle
MissionOperational spacecraft
Bus & MotorSTARLINK V2M, Unknown motor
Mass730 kg wet, ~700 kg dry
Launch date (UTC)
2024-12-05 (2 months ago)
Launch vehicle
FALCON 9
Launch site
Air Force Western Test Range (AFWTR)
Object type
Payload
Rocket body
Debris
Shape & HBRUnknown
Radar Cross SectionLarge (>1 m²)

Expand to show TLE details & history

TLE from 18 hours ago
0 STARLINK-11481
1 62230U 24231N   25025.10398136  .00000268  00000-0  70723-5 0  9990
2 62230  53.1571 315.8052 0001059  67.5063 292.6067 15.69709115  9233
Epoch: 2025-01-25T02:29Z
Definitive object data (Epoch: 2025-01-25T02:29:43.989Z)
Latitude-0.00002°
Longitude153.71431°
Altitude360.37 km
Speed7.694 km/s
True Right ascension21h 03m 13s
True Declination0° 00' 00"
Sunlit
Object was in daylight at TLE epoch
Visualization TLE readout
Latitude2.58465°
Longitude151.87117°
Altitude360.059 km
Speed7.695 km/s
Apparent Right ascension18h 26m 53s
Apparent Declination-55° 00' 37"
Sunlit
Object is in daylight
Visualization observer readout
Local Sidereal Time22:11:55
Azimuth209.797° SW
Elevation-16.344°
Doppler factor1
Orbital elements
Apogee altitude360.704 km
Perigee altitude359.277 km
Semi-major axis6,738.127 km
Eccentricity0.0001059
Inclination53.1571°
RAAN315.8052°
Arg. of periapsis67.5063°
True anomaly292.5955°
Mean anomaly292.6067°
Eccentric anomaly292.6011°
Mean motion3.92405 °/min
BSTAR0.0000070723
Orbital period91.74 mins
Loading maneuver chart data...
Loading historical data...
Loading historical data...
Loading historical data...
Loading historical data...
Loading historical data...
Loading historical data...
Loading historical data...

STARLINK-11481 Visibility forecast

Observer location: undefined°, undefined

Span
Click to sort rows by Start time (UTC) header in descending order
Start Az.
Max El. time (UTC)
Max El. Az.
Max El.
End time (UTC)
End Az.
4 mins2025-01-26 04:59:45.248Z292.378° WNW2025-01-26 05:00:45.248Z263.659° W36.195°2025-01-26 05:03:45.248Z146.035° SSE
|